Regional Weather Roundup
Issued by NWS

Home | Current Version | Previous Version | Text Only | Print | Product List | Glossary On
Versions: 1 2 3 4 5 6 7 8 9 10 11 12 13 14 15 16 17 18 19 20 21 22 23 24 25 26 27 28 29 30 31 32 33 34 35 36 37 38 39 40 41 42 43 44 45 46 47 48 49 50
000
ASUS43 KTOP 300008
RWRKS

WEATHER ROUNDUP FOR KANSAS
NATIONAL WEATHER SERVICE GOODLAND KS
600 PM CST THU JAN 29 2015

NOTE:  "FAIR" INDICATES FEW OR NO CLOUDS BELOW 12,000 FEET WITH NO
SIGNIFICANT WEATHER AND/OR OBSTRUCTIONS TO VISIBILITY.

KSZ001>006-013>018-027>032-041>047-300100-
NORTHWEST KANSAS

CITY           SKY/WX    TMP DP  RH WIND       PRES   REMARKS
GOODLAND       PTCLDY    39  21  48 NE6       30.47S
6HR MIN TEMP:  39; 6HR MAX TEMP:  48;

HAYS           CLEAR     41  19  42 N6        30.50R
HILL CITY      CLEAR     39  21  48 N5        30.49R
6HR MIN TEMP:  39; 6HR MAX TEMP:  49;

RUSSELL        CLEAR     40  24  53 N9        30.48R
6HR MIN TEMP:  40; 6HR MAX TEMP:  49;

$$

KSZ061>065-074>080-084>089-300100-
SOUTHWEST KANSAS

CITY           SKY/WX    TMP DP  RH WIND       PRES   REMARKS
DODGE CITY     CLEAR     37  19  48 N7        30.48S
6HR MIN TEMP:  37; 6HR MAX TEMP:  49;

ELKHART          N/A     46  24  42 E6          N/A
GARDEN CITY    CLEAR     40  19  43 N9        30.47S
6HR MIN TEMP:  39; 6HR MAX TEMP:  49;

LIBERAL        MOCLDY    46  21  36 NE8       30.50R
PRATT          CLEAR     37  23  56 N7        30.49R
$$

KSZ066>073-081>083-090>101-300100-
SOUTHEAST KANSAS

CITY           SKY/WX    TMP DP  RH WIND       PRES   REMARKS
CHANUTE        CLEAR     42  28  57 N9        30.47R
6HR MIN TEMP:  42; 6HR MAX TEMP:  49;

COFFEYVILLE    CLEAR     44  28  53 N12       30.46R
6HR MIN TEMP:  44; 6HR MAX TEMP:  50;

HUTCHINSON     CLEAR     44  24  45 N8        30.49R
6HR MIN TEMP:  44; 6HR MAX TEMP:  51;

MEDICINE LODGE   N/A     43  24  47 N7        30.48R
NEWTON         CLEAR     39  21  48 N9        30.49R
PARSONS        CLEAR     43  29  57 N8        30.47R
6HR MIN TEMP:  43; 6HR MAX TEMP:  51;

WICHITA INTL   PTCLDY    46  25  43 N12       30.48R
6HR MIN TEMP:  45; 6HR MAX TEMP:  52;

WICHITA JABRA  CLEAR     40  25  55 N10       30.48R WCI  33
6HR MIN TEMP:  40; 6HR MAX TEMP:  50;

WICHITA MCCONL CLEAR     44  25  48 N14       30.48R
WINFIELD       CLEAR     42  25  50 N8        30.48R
6HR MIN TEMP:  42; 6HR MAX TEMP:  51;

$$

KSZ007>012-019>026-033>040-048>060-102>105-300100-
NORTHEAST KANSAS

CITY           SKY/WX    TMP DP  RH WIND       PRES   REMARKS
CONCORDIA      CLEAR     39  24  55 NW5       30.48R
6HR MIN TEMP:  39; 6HR MAX TEMP:  47;

EMPORIA        CLEAR     38  26  62 N9        30.47R
6HR MIN TEMP:  38; 6HR MAX TEMP:  47;

LAWRENCE       CLEAR     37  25  61 N12       30.47R WCI  29
6HR MIN TEMP:  37; 6HR MAX TEMP:  46;

MANHATTAN      CLEAR     41  26  55 N3        30.48R
6HR MIN TEMP:  41; 6HR MAX TEMP:  46;

MARYSVILLE     CLEAR     36  27  69 N7        30.47R
OLATHE IND     CLEAR     37  25  61 N12       30.45R WCI  29
6HR MIN TEMP:  37; 6HR MAX TEMP:  44;

OLATHE EXE     CLEAR     39  25  57 N13G21    30.43R WCI  31
6HR MIN TEMP:  39; 6HR MAX TEMP:  44;

SALINA         CLEAR     43  25  49 N9        30.50R
6HR MIN TEMP:  43; 6HR MAX TEMP:  50;

TOPEKA BILLARD CLEAR     38  25  59 N8        30.48R
6HR MIN TEMP:  38; 6HR MAX TEMP:  45;

TOPEKA FORBES  PTCLDY    40  25  55 N7        30.46R
6HR MIN TEMP:  40; 6HR MAX TEMP:  46;

$$


USA.gov is the U.S. government's official web portal to all federal, state and local government web resources and services.